Regional Weather Roundup
Issued by NWS

Home | Current Version | Previous Version | Graphics & Text | Print | Product List | Glossary On
Versions: 1 2 3 4 5 6 7 8 9 10 11 12 13 14 15 16 17 18 19 20 21 22 23 24 25 26 27 28 29 30 31 32 33 34 35 36 37 38 39 40 41 42 43 44 45 46 47 48 49 50
000
ASUS43 KFSD 050410
RWRSD

WEATHER ROUNDUP FOR SOUTH DAKOTA
NATIONAL WEATHER SERVICE SIOUX FALLS SD
1100 PM CDT WED MAY 04 2016

NOTE: "FAIR" INDICATES FEW OR NO CLOUDS BELOW 12,000 FEET WITH NO
SIGNIFICANT WEATHER AND/OR OBSTRUCTIONS TO VISIBILITY.


SDZ001>005-009-010-012>017-050500-
NORTHWEST AND NORTH CENTRAL SOUTH DAKOTA

CITY           SKY/WX    TMP DP  RH WIND       PRES   REMARKS
BUFFALO          N/A     58  43  57 SE10      29.93R
FAITH            N/A     58  44  60 SE14      30.01S
MOBRIDGE       CLEAR     57  46  66 SE8       29.98S
$$

SDZ012>016-024>037-041>051-057-063-072>074-050500-
SOUTHWEST AND SOUTH CENTRAL SOUTH DAKOTA

CITY           SKY/WX    TMP DP  RH WIND       PRES   REMARKS
RAPID CTY ARPT CLEAR     52  43  71 S3        30.03R
PIERRE         CLEAR     56  41  57 S5        30.01S
CUSTER         CLEAR     53  36  52 CALM      30.14R
ELLSWORTH AFB  CLEAR     58  45  61 S9        30.02S
PHILIP         CLEAR     53  45  74 E8        30.02R
PINE RIDGE     CLEAR     56  40  55 CALM      30.05R
WINNER         FAIR      55  41  59 S9        30.05S
$$

SDZ004>011-016>023-039-040-050500-
NORTHEAST SOUTH DAKOTA

CITY           SKY/WX    TMP DP  RH WIND       PRES   REMARKS
ABERDEEN       CLEAR     52  36  54 S5        30.00R
WATERTOWN      CLEAR     53  32  44 CALM      30.02R
BROOKINGS      CLEAR     51  33  50 CALM      30.02R
SISSETON         N/A     50  34  54 W5        29.98F
$$

SDZ017-020-022-023-036>040-048>070-050500-
SOUTHEAST SOUTH DAKOTA

CITY           SKY/WX    TMP DP  RH WIND       PRES   REMARKS
SIOUX FALLS    CLEAR     49  35  58 CALM      30.02R
HURON          CLEAR     53  42  66 CALM      30.01S
CHAMBERLAIN    CLEAR     59  46  61 CALM      30.04S
MITCHELL       CLEAR     54  43  66 SW5       30.03R
YANKTON        CLEAR     52  39  62 W6        30.03R
$$

ABBREVIATIONS USED IN REMARKS
   TC - TEMPERATURE IN CELSIUS
  WCI - WIND CHILL INDEX
   HX - HEAT INDEX
  VSB - VISIBILITY





USA.gov is the U.S. government's official web portal to all federal, state and local government web resources and services.